User: anonymous
Location: Unspecified
(0.0000°N, 0.0000°E)
Time: 00:44:40
(UTC+00:00)
Language:

Transit 2A - Orbit

View from above orbital plane
View from above orbital plane
View from above satellite
View from above satellite

Ground track
Ground track

The orbit data is extracted from the following two-line orbital elements,

1 00045U 60007A   14113.74347737  .00000368  00000-0  12084-3 0  1216
2 00045 066.6944 179.7225 0253458 152.0598 348.8336 14.32962073800691
Epoch (UTC): 23 April 2014 17:50:36
Eccentricity: 0.0253458
inclination: 66.6944°
perigee height: 600 km
apogee height: 963 km
right ascension of ascending node: 179.7225°
argument of perigee: 152.0598°
revolutions per day: 14.32962073
mean anomaly at epoch: 348.8336°
orbit number at epoch: 80069

The dashed part of the orbit path shows where the satellite is in the earth's shadow,  

DLR